OEEMG EDLW-EDJA

Flight info

Callsign OEEMG
Flight time 1h 0m
Altitude 27000
Route EDLW DCT GMH DCT GETNI Z841 BIGSU L603 BOMBI T721 SUNEG L607 TEDGO DCT DITBA DCT LUPOL DCT EDJA
Aircraft TBM9/L-SDFGRWY/S

Departure

Time 2026-05-07 18:18
Airport Dortmund Airport (EDLW)

Arrival

Time 2026-05-07 19:19
Airport Memmingen Allgau Airport (EDJA)
Time Latitude Longitude Altitude Speed Heading
2026-05-07 17:56 51.51220 7.60460 457 ft 0 kts 197°
2026-05-07 18:09 51.51216 7.60429 456 ft 8 kts 286°
2026-05-07 18:09 51.51197 7.60312 453 ft 12 kts 230°
2026-05-07 18:09 51.51154 7.60209 456 ft 8 kts 253°
2026-05-07 18:10 51.51195 7.60156 449 ft 7 kts 32°
2026-05-07 18:10 51.51228 7.60252 437 ft 13 kts 59°
2026-05-07 18:10 51.51283 7.60400 441 ft 17 kts 60°
2026-05-07 18:10 51.51328 7.60537 439 ft 14 kts 58°
2026-05-07 18:11 51.51377 7.60678 434 ft 15 kts 60°
2026-05-07 18:11 51.51404 7.60751 434 ft 13 kts 58°
2026-05-07 18:11 51.51464 7.60916 421 ft 12 kts 60°
2026-05-07 18:11 51.51499 7.61024 429 ft 11 kts 57°
2026-05-07 18:12 51.51545 7.61059 426 ft 3 kts 340°
2026-05-07 18:12 51.51573 7.61018 423 ft 8 kts 288°
2026-05-07 18:12 51.51560 7.60920 422 ft 11 kts 256°
2026-05-07 18:12 51.51544 7.60824 420 ft 10 kts 252°
2026-05-07 18:13 51.51538 7.60791 416 ft 1 kts 252°
2026-05-07 18:13 51.51531 7.60756 418 ft 0 kts 258°
2026-05-07 18:14 51.51531 7.60755 418 ft 0 kts 258°
2026-05-07 18:14 51.51531 7.60754 418 ft 0 kts 257°
2026-05-07 18:15 51.51528 7.60733 417 ft 4 kts 258°
2026-05-07 18:15 51.51526 7.60716 409 ft 0 kts 264°
2026-05-07 18:16 51.51526 7.60715 411 ft 1 kts 264°
2026-05-07 18:16 51.51543 7.60631 413 ft 13 kts 315°
2026-05-07 18:16 51.51610 7.60603 416 ft 8 kts 31°
2026-05-07 18:16 51.51621 7.60625 413 ft 0 kts 62°
2026-05-07 18:17 51.51624 7.60633 416 ft 9 kts 58°
2026-05-07 18:17 51.51754 7.60997 412 ft 67 kts 59°
2026-05-07 18:18 51.52051 7.61815 598 ft 92 kts 63°
2026-05-07 18:18 51.52329 7.62757 998 ft 100 kts 63°
2026-05-07 18:18 51.52670 7.63850 1360 ft 116 kts 60°
2026-05-07 18:18 51.53100 7.64961 1895 ft 116 kts 58°
2026-05-07 18:19 51.53514 7.66059 2423 ft 114 kts 59°
2026-05-07 18:19 51.53911 7.67158 2962 ft 113 kts 58°
2026-05-07 18:19 51.54307 7.68262 3450 ft 115 kts 57°
2026-05-07 18:19 51.54704 7.69377 3913 ft 117 kts 58°
2026-05-07 18:20 51.55112 7.70521 4403 ft 120 kts 57°
2026-05-07 18:20 51.55534 7.71706 4891 ft 125 kts 56°
2026-05-07 18:20 51.55939 7.72984 5353 ft 133 kts 72°
2026-05-07 18:20 51.55811 7.74497 5812 ft 146 kts 115°
2026-05-07 18:21 51.55070 7.75678 6288 ft 156 kts 143°
2026-05-07 18:21 51.54196 7.76768 6759 ft 162 kts 142°
2026-05-07 18:21 51.53299 7.77917 7252 ft 166 kts 142°
2026-05-07 18:21 51.52310 7.78857 7785 ft 166 kts 165°
2026-05-07 18:22 51.51188 7.78999 8413 ft 159 kts 189°
2026-05-07 18:22 51.50490 7.78689 8833 ft 155 kts 202°
2026-05-07 18:22 51.49161 7.77914 9701 ft 148 kts 201°
2026-05-07 18:22 51.48214 7.77372 10314 ft 141 kts 202°
2026-05-07 18:23 51.47310 7.76846 10859 ft 137 kts 202°
2026-05-07 18:23 51.46407 7.76316 11326 ft 139 kts 202°
2026-05-07 18:23 51.45489 7.75775 11800 ft 141 kts 202°
2026-05-07 18:23 51.44560 7.75231 12284 ft 143 kts 202°
2026-05-07 18:24 51.43610 7.74727 12780 ft 146 kts 192°
2026-05-07 18:24 51.42596 7.74873 13292 ft 150 kts 164°
2026-05-07 18:24 51.41600 7.75443 13754 ft 154 kts 163°
2026-05-07 18:24 51.40571 7.76014 14169 ft 159 kts 163°
2026-05-07 18:25 51.39507 7.76610 14602 ft 164 kts 163°
2026-05-07 18:25 51.38437 7.77213 15014 ft 168 kts 163°
2026-05-07 18:25 51.37317 7.77844 15441 ft 173 kts 163°
2026-05-07 18:25 51.36155 7.78501 15880 ft 177 kts 163°
2026-05-07 18:26 51.34990 7.79156 16319 ft 182 kts 163°
2026-05-07 18:26 51.33787 7.79838 16767 ft 186 kts 163°
2026-05-07 18:26 51.32559 7.80529 17253 ft 187 kts 163°
2026-05-07 18:26 51.31348 7.81212 17861 ft 181 kts 163°
2026-05-07 18:27 51.30177 7.81876 18457 ft 176 kts 163°
2026-05-07 18:27 51.29043 7.82516 18993 ft 170 kts 163°
2026-05-07 18:27 51.27938 7.83133 19475 ft 168 kts 166°
2026-05-07 18:27 51.27201 7.83510 19763 ft 168 kts 167°
2026-05-07 18:28 51.25711 7.84328 20354 ft 170 kts 165°
2026-05-07 18:28 51.24593 7.84966 20808 ft 171 kts 165°
2026-05-07 18:28 51.23470 7.85603 21268 ft 171 kts 165°
2026-05-07 18:28 51.22347 7.86235 21735 ft 171 kts 166°
2026-05-07 18:29 51.21222 7.86865 22209 ft 170 kts 166°
2026-05-07 18:29 51.20105 7.87492 22691 ft 170 kts 166°
2026-05-07 18:29 51.18996 7.88112 23180 ft 169 kts 166°
2026-05-07 18:29 51.17880 7.88736 23624 ft 171 kts 166°
2026-05-07 18:30 51.16797 7.89492 23996 ft 176 kts 149°
2026-05-07 18:30 51.15827 7.90706 24371 ft 178 kts 147°
2026-05-07 18:30 51.14813 7.91909 24765 ft 180 kts 147°
2026-05-07 18:30 51.13815 7.93094 25149 ft 183 kts 147°
2026-05-07 18:31 51.12792 7.94320 25546 ft 185 kts 147°
2026-05-07 18:31 51.11759 7.95560 25948 ft 187 kts 147°
2026-05-07 18:31 51.10715 7.96814 26357 ft 189 kts 146°
2026-05-07 18:31 51.09661 7.98079 26770 ft 191 kts 146°
2026-05-07 18:32 51.08588 7.99367 27071 ft 201 kts 146°
2026-05-07 18:32 51.07401 8.00774 27083 ft 224 kts 146°
2026-05-07 18:32 51.06094 8.02330 27080 ft 245 kts 146°
2026-05-07 18:32 51.04683 8.04019 27082 ft 262 kts 146°
2026-05-07 18:33 51.03185 8.05811 27076 ft 277 kts 145°
2026-05-07 18:33 51.02147 8.07051 27075 ft 285 kts 145°
2026-05-07 18:33 51.00539 8.08972 27073 ft 295 kts 145°
2026-05-07 18:33 50.98305 8.11637 27072 ft 305 kts 145°
2026-05-07 18:34 50.97176 8.12984 27071 ft 309 kts 145°
2026-05-07 18:34 50.95441 8.15050 27070 ft 314 kts 145°
2026-05-07 18:34 50.93683 8.17141 27068 ft 317 kts 145°
2026-05-07 18:34 50.91907 8.19254 27069 ft 320 kts 145°
2026-05-07 18:35 50.90118 8.21380 27073 ft 323 kts 145°
2026-05-07 18:35 50.88314 8.23520 27066 ft 325 kts 145°
2026-05-07 18:35 50.86505 8.25665 27065 ft 326 kts 145°
2026-05-07 18:35 50.84671 8.27799 27066 ft 327 kts 148°
2026-05-07 18:36 50.82714 8.29520 27066 ft 326 kts 155°
2026-05-07 18:36 50.80707 8.31217 27059 ft 327 kts 153°
2026-05-07 18:36 50.78714 8.32963 27064 ft 328 kts 153°
2026-05-07 18:36 50.76684 8.34713 27061 ft 328 kts 154°
2026-05-07 18:37 50.74695 8.36380 27062 ft 329 kts 154°
2026-05-07 18:37 50.72672 8.38087 27059 ft 329 kts 154°
2026-05-07 18:37 50.70657 8.39803 27064 ft 329 kts 153°
2026-05-07 18:37 50.68640 8.41519 27063 ft 329 kts 154°
2026-05-07 18:38 50.66623 8.43226 27068 ft 330 kts 153°
2026-05-07 18:38 50.64597 8.44938 27079 ft 330 kts 153°
2026-05-07 18:38 50.62575 8.46648 27079 ft 330 kts 153°
2026-05-07 18:38 50.60547 8.48362 27079 ft 330 kts 153°
2026-05-07 18:39 50.58523 8.50070 27076 ft 330 kts 153°
2026-05-07 18:39 50.56493 8.51781 27067 ft 330 kts 153°
2026-05-07 18:39 50.54466 8.53490 27062 ft 331 kts 153°
2026-05-07 18:39 50.52440 8.55195 27062 ft 331 kts 153°
2026-05-07 18:40 50.50405 8.56904 27064 ft 331 kts 153°
2026-05-07 18:40 50.48372 8.58612 27063 ft 331 kts 153°
2026-05-07 18:40 50.46342 8.60316 27060 ft 331 kts 153°
2026-05-07 18:40 50.44273 8.61919 27066 ft 330 kts 160°
2026-05-07 18:41 50.42084 8.62993 27077 ft 329 kts 166°
2026-05-07 18:41 50.39888 8.64020 27075 ft 329 kts 165°
2026-05-07 18:41 50.37695 8.65070 27078 ft 329 kts 165°
2026-05-07 18:41 50.35501 8.66103 27073 ft 330 kts 165°
2026-05-07 18:42 50.33307 8.67127 27063 ft 330 kts 165°
2026-05-07 18:42 50.31109 8.68155 27056 ft 330 kts 165°
2026-05-07 18:42 50.28913 8.69186 27047 ft 330 kts 165°
2026-05-07 18:42 50.26704 8.70220 27045 ft 330 kts 165°
2026-05-07 18:43 50.24507 8.71247 27046 ft 330 kts 165°
2026-05-07 18:43 50.22300 8.72276 27043 ft 330 kts 165°
2026-05-07 18:43 50.20099 8.73303 27044 ft 330 kts 165°
2026-05-07 18:43 50.17925 8.74316 27045 ft 330 kts 165°
2026-05-07 18:44 50.15690 8.75357 27043 ft 331 kts 165°
2026-05-07 18:44 50.13511 8.76370 27044 ft 331 kts 165°
2026-05-07 18:44 50.11307 8.77395 27039 ft 331 kts 165°
2026-05-07 18:44 50.09102 8.78418 27042 ft 331 kts 166°
2026-05-07 18:45 50.06902 8.79439 27041 ft 331 kts 166°
2026-05-07 18:45 50.04690 8.80465 27045 ft 331 kts 165°
2026-05-07 18:45 50.02488 8.81513 27041 ft 331 kts 165°
2026-05-07 18:45 50.00286 8.82573 27043 ft 331 kts 165°
2026-05-07 18:46 49.98084 8.83619 27046 ft 331 kts 165°
2026-05-07 18:46 49.95876 8.84663 27044 ft 331 kts 165°
2026-05-07 18:46 49.93670 8.85707 27044 ft 331 kts 165°
2026-05-07 18:46 49.91466 8.86752 27050 ft 331 kts 165°
2026-05-07 18:47 49.89261 8.87795 27053 ft 331 kts 165°
2026-05-07 18:47 49.87057 8.88836 27053 ft 331 kts 165°
2026-05-07 18:47 49.84848 8.89879 27048 ft 331 kts 165°
2026-05-07 18:47 49.82628 8.90834 27059 ft 330 kts 170°
2026-05-07 18:48 49.80363 8.91411 27063 ft 329 kts 175°
2026-05-07 18:48 49.78128 8.91941 27060 ft 330 kts 172°
2026-05-07 18:48 49.75839 8.92651 27059 ft 331 kts 170°
2026-05-07 18:48 49.73612 8.93373 27058 ft 331 kts 171°
2026-05-07 18:49 49.71355 8.94041 27059 ft 330 kts 172°
2026-05-07 18:49 49.69091 8.94691 27058 ft 331 kts 172°
2026-05-07 18:49 49.66837 8.95361 27057 ft 331 kts 172°
2026-05-07 18:49 49.64570 8.96043 27056 ft 331 kts 172°
2026-05-07 18:50 49.62312 8.96714 27055 ft 331 kts 172°
2026-05-07 18:50 49.60049 8.97383 27051 ft 331 kts 172°
2026-05-07 18:50 49.57789 8.98051 27050 ft 331 kts 172°
2026-05-07 18:50 49.55526 8.98721 27056 ft 331 kts 172°
2026-05-07 18:51 49.53263 8.99391 27054 ft 331 kts 172°
2026-05-07 18:51 49.51004 9.00058 27052 ft 332 kts 172°
2026-05-07 18:51 49.48730 9.00729 27051 ft 332 kts 172°
2026-05-07 18:51 49.46470 9.01394 27052 ft 332 kts 172°
2026-05-07 18:52 49.44225 9.02056 27052 ft 332 kts 172°
2026-05-07 18:52 49.41928 9.02732 27050 ft 332 kts 172°
2026-05-07 18:52 49.39687 9.03392 27051 ft 332 kts 172°
2026-05-07 18:52 49.37407 9.04059 26756 ft 336 kts 172°
2026-05-07 18:53 49.35109 9.04730 26343 ft 336 kts 172°
2026-05-07 18:53 49.32815 9.05402 25942 ft 336 kts 172°
2026-05-07 18:53 49.30524 9.06074 25540 ft 336 kts 172°
2026-05-07 18:53 49.28224 9.06745 25146 ft 336 kts 172°
2026-05-07 18:54 49.25926 9.07416 24754 ft 336 kts 172°
2026-05-07 18:54 49.23627 9.08086 24369 ft 336 kts 172°
2026-05-07 18:54 49.21324 9.08757 23989 ft 336 kts 172°
2026-05-07 18:54 49.19030 9.09426 23609 ft 336 kts 172°
2026-05-07 18:55 49.16726 9.10096 23166 ft 337 kts 172°
2026-05-07 18:55 49.14422 9.10764 22716 ft 336 kts 173°
2026-05-07 18:55 49.12126 9.11430 22283 ft 336 kts 173°
2026-05-07 18:55 49.09867 9.12083 21866 ft 336 kts 173°
2026-05-07 18:56 49.07564 9.12750 21442 ft 337 kts 173°
2026-05-07 18:56 49.05257 9.13419 21027 ft 337 kts 173°
2026-05-07 18:56 49.02954 9.14086 20624 ft 337 kts 173°
2026-05-07 18:56 49.00642 9.14756 20214 ft 337 kts 173°
2026-05-07 18:57 48.98334 9.15426 19827 ft 338 kts 173°
2026-05-07 18:57 48.96029 9.16089 19424 ft 334 kts 173°
2026-05-07 18:57 48.93772 9.16740 19024 ft 328 kts 173°
2026-05-07 18:57 48.91549 9.17385 18640 ft 322 kts 173°
2026-05-07 18:58 48.89357 9.18018 18242 ft 318 kts 173°
2026-05-07 18:58 48.87195 9.18639 17804 ft 315 kts 173°
2026-05-07 18:58 48.85048 9.19254 17372 ft 313 kts 173°
2026-05-07 18:58 48.82914 9.19867 16947 ft 311 kts 173°
2026-05-07 18:59 48.80795 9.20473 16527 ft 309 kts 172°
2026-05-07 18:59 48.78688 9.21080 16113 ft 308 kts 172°
2026-05-07 18:59 48.76618 9.21893 15686 ft 310 kts 159°
2026-05-07 18:59 48.74819 9.23716 15261 ft 313 kts 142°
2026-05-07 19:00 48.73226 9.25906 14865 ft 312 kts 139°
2026-05-07 19:00 48.71652 9.28157 14479 ft 311 kts 139°
2026-05-07 19:00 48.70021 9.30298 14092 ft 308 kts 143°
2026-05-07 19:00 48.68356 9.32335 13692 ft 307 kts 143°
2026-05-07 19:01 48.66728 9.34395 13260 ft 302 kts 142°
2026-05-07 19:01 48.65147 9.36451 12836 ft 298 kts 142°
2026-05-07 19:01 48.63572 9.38463 12434 ft 294 kts 143°
2026-05-07 19:01 48.61982 9.40394 12026 ft 291 kts 148°
2026-05-07 19:02 48.60224 9.41859 11622 ft 287 kts 158°
2026-05-07 19:02 48.58431 9.43144 11219 ft 285 kts 156°
2026-05-07 19:02 48.56695 9.44594 10811 ft 284 kts 152°
2026-05-07 19:02 48.55013 9.46135 10423 ft 282 kts 153°
2026-05-07 19:03 48.53315 9.47617 10040 ft 280 kts 154°
2026-05-07 19:03 48.51624 9.49050 9623 ft 279 kts 154°
2026-05-07 19:03 48.49963 9.50476 9203 ft 278 kts 153°
2026-05-07 19:03 48.48303 9.51916 9067 ft 269 kts 153°
2026-05-07 19:04 48.46718 9.53307 9053 ft 260 kts 154°
2026-05-07 19:04 48.45174 9.54637 9051 ft 254 kts 154°
2026-05-07 19:04 48.43646 9.55940 9050 ft 251 kts 154°
2026-05-07 19:04 48.42141 9.57228 9050 ft 246 kts 154°
2026-05-07 19:05 48.40665 9.58500 9047 ft 242 kts 154°
2026-05-07 19:05 48.39203 9.59755 9049 ft 241 kts 154°
2026-05-07 19:05 48.37736 9.61008 9050 ft 245 kts 154°
2026-05-07 19:05 48.36247 9.62279 9051 ft 246 kts 154°
2026-05-07 19:06 48.34755 9.63557 9047 ft 248 kts 154°
2026-05-07 19:06 48.31749 9.66129 9045 ft 249 kts 154°
2026-05-07 19:06 48.30241 9.67417 9044 ft 249 kts 154°
2026-05-07 19:07 48.28731 9.68706 9046 ft 249 kts 154°
2026-05-07 19:07 48.27225 9.69993 9034 ft 250 kts 154°
2026-05-07 19:07 48.25675 9.71305 8661 ft 260 kts 154°
2026-05-07 19:07 48.24080 9.72648 8280 ft 266 kts 154°
2026-05-07 19:08 48.22463 9.74021 7893 ft 268 kts 154°
2026-05-07 19:08 48.20838 9.75408 7517 ft 268 kts 153°
2026-05-07 19:08 48.19263 9.76758 7149 ft 260 kts 153°
2026-05-07 19:08 48.17710 9.78094 6778 ft 255 kts 153°
2026-05-07 19:09 48.16160 9.79404 6401 ft 252 kts 153°
2026-05-07 19:09 48.14659 9.80674 6015 ft 250 kts 152°
2026-05-07 19:09 48.13150 9.81953 5629 ft 249 kts 152°
2026-05-07 19:09 48.11674 9.83204 5241 ft 236 kts 152°
2026-05-07 19:10 48.10278 9.84400 4851 ft 227 kts 150°
2026-05-07 19:10 48.08918 9.85552 4459 ft 222 kts 149°
2026-05-07 19:10 48.07597 9.86722 4070 ft 219 kts 147°
2026-05-07 19:10 48.06302 9.87839 4001 ft 213 kts 148°
2026-05-07 19:11 48.04990 9.88913 3996 ft 215 kts 151°
2026-05-07 19:11 48.03671 9.89984 3998 ft 217 kts 150°
2026-05-07 19:11 48.02368 9.91088 3998 ft 211 kts 148°
2026-05-07 19:11 48.01107 9.92168 3994 ft 206 kts 149°
2026-05-07 19:12 47.99872 9.93211 3995 ft 202 kts 149°
2026-05-07 19:12 47.98655 9.94237 3993 ft 200 kts 149°
2026-05-07 19:12 47.97444 9.95258 3991 ft 200 kts 149°
2026-05-07 19:12 47.96237 9.96273 3991 ft 198 kts 148°
2026-05-07 19:13 47.95035 9.97284 3992 ft 198 kts 148°
2026-05-07 19:13 47.93841 9.98288 3992 ft 197 kts 148°
2026-05-07 19:13 47.92710 9.99244 3990 ft 179 kts 146°
2026-05-07 19:13 47.91810 10.00426 3991 ft 169 kts 124°
2026-05-07 19:14 47.91294 10.01956 3993 ft 164 kts 104°
2026-05-07 19:14 47.91162 10.03644 4001 ft 161 kts 90°
2026-05-07 19:14 47.91196 10.05324 3952 ft 163 kts 75°
2026-05-07 19:14 47.91663 10.06709 4032 ft 145 kts 52°
2026-05-07 19:15 47.92309 10.07905 3963 ft 153 kts 50°
2026-05-07 19:15 47.92939 10.09211 3924 ft 155 kts 56°
2026-05-07 19:15 47.93511 10.10581 3939 ft 151 kts 57°
2026-05-07 19:15 47.94071 10.11867 3852 ft 142 kts 56°
2026-05-07 19:16 47.94571 10.13063 3643 ft 133 kts 56°
2026-05-07 19:16 47.95088 10.14141 3507 ft 123 kts 58°
2026-05-07 19:16 47.95471 10.15204 3380 ft 111 kts 61°
2026-05-07 19:16 47.95836 10.16222 3172 ft 113 kts 59°
2026-05-07 19:17 47.96226 10.17243 2978 ft 116 kts 57°
2026-05-07 19:17 47.96634 10.18259 2828 ft 113 kts 57°
2026-05-07 19:17 47.97016 10.19232 2677 ft 95 kts 57°
2026-05-07 19:17 47.97326 10.20021 2501 ft 82 kts 56°
2026-05-07 19:18 47.97618 10.20755 2396 ft 83 kts 57°
2026-05-07 19:18 47.97923 10.21524 2296 ft 89 kts 57°
2026-05-07 19:18 47.98233 10.22310 2154 ft 85 kts 57°
2026-05-07 19:18 47.98515 10.23017 2079 ft 71 kts 57°
2026-05-07 19:19 47.98716 10.23515 2075 ft 25 kts 55°
2026-05-07 19:19 47.98759 10.23559 2075 ft 4 kts 333°
2026-05-07 19:19 47.98780 10.23535 2075 ft 0 kts 322°
2026-05-07 19:19 47.98781 10.23534 2075 ft 0 kts 320°
2026-05-07 19:20 47.98782 10.23533 2075 ft 0 kts 320°
2026-05-07 19:20 47.98790 10.23487 2075 ft 11 kts 267°
2026-05-07 19:20 47.98776 10.23404 2074 ft 15 kts 251°
2026-05-07 19:20 47.98742 10.23233 2072 ft 18 kts 253°
2026-05-07 19:21 47.98703 10.23051 2075 ft 19 kts 258°
2026-05-07 19:21 47.98721 10.22892 2072 ft 13 kts 284°
2026-05-07 19:21 47.98760 10.22866 2072 ft 3 kts 39°
2026-05-07 19:21 47.98762 10.22870 2072 ft 0 kts 46°
2026-05-07 19:22 47.98762 10.22869 2072 ft 1 kts 24°
2026-05-07 19:22 47.98762 10.22870 2072 ft 0 kts 24°